CAPE
nan nan nan nan nan nan nan nan nan nan nan nan nan nan nan nan nan nan nan nan nan nan nan nan nan nan nan nan nan nan 0 1 3 3 5 6 7 7 6 6 6 5 4 3 3 3 4 5 5 8 11 16 19 19 22 27 27 31 36 40 40 43 46 47 47 46 41 36 35 35 33 29 24 24 21 25 30 30 36 41 41 41 38 35 35 36
nan nan nan nan nan nan nan nan nan nan nan nan nan nan nan nan nan nan nan nan nan nan nan nan nan nan nan nan nan nan 0 1 2 2 4 6 6 6 5 4 4 4 4 3 3 4 5 7 7 9 11 15 16 16 18 22 22 26 30 34 34 36 37 39 39 36 34 33 30 30 29 27 26 26 28 34 44 44 51 52 52 52 48 47 47 49
nan nan nan nan nan nan nan nan nan nan nan nan nan nan nan nan nan nan nan nan nan nan nan nan nan nan nan nan nan nan nan 0 2 2 3 4 4 4 4 3 3 3 4 4 4 5 7 8 8 10 12 14 15 15 16 18 18 20 23 25 25 26 28 28 28 28 28 27 25 25 24 24 27 27 34 46 58 58 65 65 65 63 60 61 61 64
nan nan nan nan nan nan nan nan nan nan nan nan nan nan nan nan nan nan nan nan nan nan nan nan nan nan nan nan nan nan nan 0 1 1 2 4 3 3 2 2 2 2 3 4 4 6 8 10 10 11 13 14 15 15 15 16 16 18 19 20 20 20 20 20 20 22 24 23 20 20 20 24 31 31 41 52 64 64 74 74 74 71 71 72 72 75
nan nan nan nan nan nan nan nan nan nan nan nan nan nan nan nan nan nan nan nan nan nan nan nan nan nan nan nan nan nan nan 0 1 1 3 3 3 3 2 1 1 1 3 4 4 7 9 10 10 12 14 14 16 16 15 16 16 16 17 16 16 17 17 20 20 22 23 22 22 22 21 24 30 30 39 52 66 66 78 78 78 75 72 75 75 82
nan nan nan nan nan nan nan nan nan nan nan nan nan nan nan nan nan nan nan nan nan nan nan nan nan nan nan nan nan nan nan 0 1 1 2 3 2 2 1 1 1 1 2 3 3 6 8 10 10 12 14 15 18 18 16 15 15 15 16 15 15 17 19 20 20 22 23 24 25 25 26 27 28 28 33 43 57 57 70 77 77 72 70 75 75 82
nan nan nan nan nan nan nan nan nan nan nan nan nan nan nan nan nan nan nan nan nan nan nan nan nan nan nan nan nan nan nan 0 2 2 2 2 2 2 1 1 1 2 2 3 3 5 8 10 10 12 16 17 18 18 17 15 15 14 14 15 15 18 20 22 22 24 24 26 28 28 29 29 28 28 30 34 43 43 54 63 63 67 67 71 71 82
nan nan nan nan nan nan nan nan nan nan nan nan nan nan nan nan nan nan nan nan nan nan nan nan nan nan nan nan nan nan nan nan nan nan nan nan nan nan 0 1 1 2 3 4 4 5 7 9 9 12 15 17 16 16 15 13 13 13 13 16 16 18 22 25 25 29 29 31 33 33 33 32 31 31 31 30 30 30 36 43 43 53 65 71 71 81
nan nan nan nan nan nan nan nan nan nan nan nan nan nan nan nan nan nan nan nan nan nan nan nan nan nan nan nan nan nan nan nan nan nan nan nan nan nan nan 0 0 2 5 6 6 7 8 9 9 12 13 12 13 13 12 12 12 11 13 16 16 20 22 26 26 30 31 33 34 34 36 35 35 35 34 34 34 34 34 38 38 45 58 70 70 83
nan nan nan nan nan nan nan nan nan nan nan nan nan nan nan nan nan nan nan nan nan nan nan nan nan nan nan nan nan nan nan nan nan nan nan nan nan nan nan nan nan nan 3 6 6 8 10 10 10 12 10 9 8 8 8 9 9 11 14 16 16 19 22 26 26 30 34 36 37 37 36 36 37 37 35 35 36 36 34 36 36 38 48 60 60 76
nan nan nan nan nan nan nan nan nan nan nan nan nan nan nan nan nan nan nan nan nan nan nan nan nan nan nan nan nan nan nan nan nan nan nan nan nan nan nan nan nan 0 1 2 2 3 7 9 9 10 8 7 7 7 6 7 7 11 13 17 17 18 21 25 25 29 35 38 37 37 37 36 35 35 36 35 36 36 35 34 34 33 37 46 46 59
nan nan nan nan nan nan nan nan nan nan nan nan nan nan nan nan nan nan nan nan nan nan nan nan nan nan nan nan nan nan nan nan nan nan nan nan nan nan nan nan nan nan nan nan nan 0 2 5 5 5 4 3 4 4 5 6 6 10 13 16 16 18 20 24 24 30 34 37 37 37 37 36 35 35 36 34 36 36 33 31 31 32 32 36 36 45
nan nan nan nan nan nan nan nan nan nan nan nan nan nan nan nan nan nan nan nan nan nan nan nan nan nan nan nan nan nan nan nan nan nan nan nan nan nan nan nan nan nan nan nan nan nan nan 2 2 1 1 1 3 3 5 7 7 10 13 16 16 18 21 27 27 32 35 37 36 36 35 34 35 35 35 36 36 36 34 33 33 32 31 33 33 36
nan nan nan nan nan nan nan nan nan nan nan nan nan nan nan nan nan nan nan nan nan nan nan nan nan nan nan nan nan nan nan nan nan nan nan nan nan nan nan nan nan nan nan nan nan nan nan nan nan nan nan nan 1 1 4 8 8 11 13 15 15 19 24 27 27 30 33 33 32 32 33 31 35 35 37 38 36 36 35 34 34 31 31 32 32 33
nan nan nan nan nan nan nan nan nan nan nan nan nan nan nan nan nan nan nan nan nan nan nan nan nan nan nan nan nan nan nan nan nan nan nan nan nan nan nan nan nan nan nan nan nan nan nan nan nan nan nan nan nan nan 2 5 5 12 13 16 16 21 25 28 28 30 30 31 30 30 32 33 34 34 37 40 35 35 35 32 32 31 33 34 34 34
nan nan nan nan nan nan nan nan nan nan nan nan nan nan 0 0 nan nan nan nan nan nan nan nan nan nan nan nan nan nan nan nan nan nan nan nan nan nan nan nan nan nan nan nan nan nan nan nan nan nan nan nan 3 3 4 6 6 12 14 17 17 22 26 28 28 28 27 28 30 30 33 34 36 36 37 39 36 36 34 32 32 35 35 36 36 41
nan nan nan nan nan nan nan nan 1 1 1 1 1 1 nan 0 nan nan nan nan nan nan nan nan nan nan nan nan nan nan nan nan nan nan nan nan nan nan nan nan nan nan nan nan nan nan nan nan nan nan nan 0 3 3 4 7 7 11 15 21 21 22 26 24 24 24 25 27 29 29 33 35 37 37 39 36 33 33 33 34 34 38 42 48 48 54
nan nan nan nan nan nan nan nan 1 1 2 1 1 1 nan nan nan nan nan nan nan nan nan nan nan nan nan nan nan nan nan nan nan nan nan nan nan nan nan nan nan nan nan nan nan nan nan nan nan nan nan 3 4 4 6 9 9 14 18 21 21 23 21 20 20 22 24 29 31 31 35 37 36 36 36 34 33 33 33 37 37 40 49 61 61 68
nan nan nan nan nan nan nan nan 0 0 1 1 1 1 nan nan nan nan nan nan nan nan nan nan nan nan nan nan nan nan nan nan nan nan nan nan nan nan nan nan nan nan nan nan nan nan nan nan nan nan 0 2 4 4 8 11 11 16 19 20 20 19 17 18 18 19 23 30 32 32 35 36 36 36 35 31 33 33 36 41 41 50 58 67 67 74
nan nan 0 0 0 0 nan 0 0 0 2 2 0 0 nan nan nan nan nan nan nan nan nan nan nan nan nan nan nan nan nan nan nan nan nan nan nan nan nan nan nan nan nan nan nan nan nan nan nan nan nan 1 4 4 8 12 12 17 20 19 19 16 14 15 15 19 24 31 32 32 35 35 33 33 32 32 35 35 40 45 45 55 61 72 72 81
nan nan nan nan nan nan nan nan 0 0 2 3 nan nan nan nan nan nan nan nan nan nan nan nan nan nan nan nan nan nan nan nan nan nan nan nan nan nan nan nan nan nan nan nan nan nan nan nan nan nan nan 1 5 5 9 13 13 15 17 15 15 14 14 15 15 19 25 29 31 31 32 33 33 33 32 33 37 37 42 47 47 58 64 71 71 79
nan nan nan nan nan nan nan nan nan nan nan nan nan nan nan nan nan nan nan nan nan nan nan nan nan nan nan nan nan nan nan nan nan nan nan nan nan nan nan nan nan nan nan nan nan nan nan nan nan nan nan 2 5 5 8 11 11 14 14 13 13 13 14 17 17 21 25 28 31 31 31 32 32 32 31 33 38 38 45 50 50 57 66 67 67 74
nan nan nan nan nan nan nan nan nan nan nan nan nan nan nan nan nan nan nan nan nan nan nan nan nan nan nan nan nan nan nan nan nan nan nan nan nan nan nan nan nan nan nan nan nan nan nan nan nan nan nan 2 4 4 6 10 10 11 12 13 13 14 15 18 18 21 25 27 28 28 29 31 32 32 33 37 40 40 45 51 51 55 60 60 60 61
nan nan nan nan nan nan nan nan nan nan nan nan nan nan nan nan nan nan nan nan nan nan nan nan nan nan nan nan nan nan nan nan nan nan nan nan nan nan nan nan nan nan nan nan nan nan nan nan nan nan nan 0 2 2 5 8 8 9 11 13 13 14 16 19 19 22 23 24 26 26 29 31 34 34 35 38 39 39 42 44 44 50 53 48 48 47
nan nan nan nan nan nan nan nan nan nan nan nan nan nan nan nan 1 1 nan nan nan nan nan nan nan nan nan nan nan nan nan nan nan nan nan nan nan nan nan nan nan nan nan nan nan nan nan nan nan nan nan nan 1 1 4 7 7 8 12 13 13 15 17 19 19 22 22 23 26 26 27 31 35 35 37 39 37 37 37 41 41 42 42 38 38 32
nan nan nan nan nan 0 3 6 7 7 3 nan nan nan nan 0 nan nan nan nan nan nan nan nan nan nan nan nan nan nan nan nan nan nan nan nan nan nan nan nan nan nan nan nan nan nan nan nan nan nan nan nan nan nan 2 6 6 9 12 13 13 15 16 19 19 20 21 21 23 23 26 30 34 34 37 39 40 40 39 41 41 41 37 31 31 25
3 2 4 6 6 7 7 6 8 8 9 8 0 0 nan nan nan nan nan nan nan nan nan nan nan nan nan nan nan nan nan nan nan nan nan nan nan nan nan nan nan nan nan nan nan nan nan nan nan nan nan nan nan nan 2 5 5 9 11 13 13 15 16 17 17 19 19 20 22 22 25 30 34 34 35 37 38 38 39 41 41 41 37 30 30 28
0 0 1 1 1 2 3 4 5 5 6 8 11 11 4 nan nan nan nan nan nan nan nan nan nan nan nan nan nan nan nan nan nan nan nan nan nan nan nan nan nan nan nan nan nan nan nan nan nan nan nan nan nan nan nan 6 6 8 10 12 12 13 14 15 15 16 18 19 22 22 25 28 33 33 34 35 39 39 40 43 43 42 39 26 26 10
nan nan nan nan nan 0 1 2 1 1 2 6 11 11 3 nan nan nan nan nan nan nan 0 1 1 0 nan nan nan nan nan nan nan nan nan nan nan nan nan nan nan nan nan nan nan nan nan nan nan nan nan nan nan nan nan 2 2 4 7 9 9 12 11 13 13 15 17 18 20 20 23 28 31 31 33 33 37 37 41 44 44 46 36 19 19 8
nan nan nan nan nan nan nan nan nan nan 2 5 8 8 3 nan nan nan nan nan nan nan 0 2 2 1 0 0 nan nan nan nan nan nan nan nan nan nan nan nan nan nan nan nan nan nan nan nan nan nan nan nan nan nan nan nan nan nan nan 6 6 6 8 10 10 13 16 17 19 19 24 26 32 32 33 35 37 37 41 46 46 45 25 12 12 7
nan nan nan nan nan nan nan nan nan nan 4 7 8 8 0 nan nan nan nan nan nan nan 0 1 1 1 1 0 nan nan nan nan nan nan nan nan nan nan nan nan nan nan nan nan nan nan nan nan nan nan nan nan nan nan nan nan nan nan nan nan nan nan 5 8 8 11 14 16 20 20 22 27 30 30 32 34 36 36 42 50 50 44 19 8 8 6
nan nan nan nan nan nan nan nan nan nan nan nan nan nan nan nan 1 1 nan nan nan nan nan 1 1 1 2 2 0 0 nan nan nan nan 1 0 0 0 0 0 0 0 nan nan nan nan nan nan nan nan nan nan nan nan nan nan nan nan nan nan nan nan nan 3 3 4 3 11 16 16 19 22 28 28 30 33 35 35 41 47 47 44 19 9 9 9
nan nan nan nan nan nan nan nan nan nan nan nan nan nan nan nan nan nan nan nan nan nan nan 1 1 2 2 1 0 0 nan nan 0 0 7 1 1 1 1 0 0 0 0 0 0 nan nan nan nan nan nan nan nan nan nan nan nan nan nan nan nan nan nan nan nan nan nan 1 2 2 13 18 25 25 30 32 36 36 41 45 45 43 36 11 11 10
nan nan nan nan nan nan nan nan nan nan nan nan nan nan nan nan nan nan nan nan nan nan 0 1 1 2 3 2 1 1 nan nan 1 1 10 2 1 1 1 0 0 0 0 1 1 0 nan nan nan nan nan nan nan nan nan nan nan nan nan nan nan nan nan nan nan nan nan nan nan nan nan nan 17 17 22 29 34 34 38 42 42 43 39 25 25 14
nan nan nan nan nan nan nan nan nan nan nan nan nan nan nan nan nan nan 0 0 0 nan nan nan nan 1 3 2 2 2 1 nan 0 0 10 2 1 1 0 0 0 1 1 1 1 1 0 0 0 3 0 nan nan nan nan nan nan nan nan nan nan nan nan nan nan nan nan nan nan nan nan nan nan nan 7 22 33 33 38 38 38 37 38 40 40 27
nan nan nan nan nan nan nan nan nan nan nan nan nan nan nan nan nan nan nan nan nan 0 1 2 2 2 1 1 1 1 0 nan nan nan 5 0 nan nan nan 0 0 1 1 1 1 1 1 1 1 4 4 0 nan nan nan nan nan nan nan nan nan nan nan nan nan nan nan nan nan nan nan nan nan nan 2 28 35 35 33 32 32 34 34 36 36 33
nan nan nan nan nan nan nan nan nan nan nan nan nan nan nan 0 0 0 nan nan nan nan 0 3 3 2 4 1 0 0 nan nan nan nan nan nan nan nan nan nan nan 2 0 0 0 1 1 1 1 1 1 0 nan nan nan nan nan nan nan nan nan nan nan nan nan nan nan nan nan nan nan nan 0 0 5 25 21 21 24 28 28 26 30 33 33 33
nan nan nan nan nan nan nan nan nan nan nan nan nan nan nan 0 nan nan nan nan nan nan nan nan nan nan 4 4 nan nan nan nan nan nan nan nan nan nan nan nan nan 0 1 1 1 1 1 1 1 0 1 nan 3 3 2 0 0 nan nan nan nan nan nan nan nan nan nan nan nan nan 1 0 nan nan nan 1 nan nan nan nan nan 10 21 23 23 27
nan nan nan nan nan nan nan nan nan nan nan nan nan nan nan nan nan nan nan nan nan nan nan nan nan nan nan nan nan nan nan nan nan nan nan nan nan nan nan nan nan nan 0 1 1 1 2 1 1 1 2 1 1 1 0 nan nan nan nan nan nan nan nan nan nan nan nan nan nan nan nan nan nan nan nan nan nan nan nan nan nan 3 5 1 1 12
nan nan nan nan nan nan nan nan nan nan nan 0 1 1 1 0 nan nan nan nan nan nan nan nan nan nan nan nan nan nan nan nan nan nan nan nan nan nan nan nan nan nan 1 1 1 1 2 3 3 4 9 3 3 3 2 nan nan nan 3 0 0 nan nan nan nan nan nan nan nan nan nan nan nan nan nan nan nan nan nan nan nan 0 2 1 1 nan
nan nan nan nan nan nan nan nan nan nan nan 0 0 0 0 0 0 0 0 nan nan nan nan nan nan nan nan nan nan nan nan nan nan nan nan nan nan nan nan nan nan nan 1 2 2 2 4 3 3 4 4 3 4 4 2 nan nan 5 8 1 1 nan nan nan nan nan nan nan nan nan nan nan nan nan nan nan nan nan nan nan nan nan 1 nan nan nan
nan nan nan nan nan nan nan nan 1 1 1 0 nan nan nan 0 nan nan 0 0 0 0 0 0 0 0 nan nan nan nan nan nan nan nan nan nan nan nan nan nan nan nan 0 1 1 1 2 3 3 4 2 1 1 1 nan nan nan 1 4 0 0 nan 3 nan nan nan nan nan nan nan nan nan nan nan nan nan nan nan nan nan nan 5 5 nan nan nan
nan nan nan nan nan nan nan 0 0 0 1 nan nan nan nan 0 0 0 0 nan nan 0 1 1 1 0 nan nan nan nan nan nan nan nan nan nan nan nan nan nan nan nan nan nan nan nan 0 1 1 1 1 0 nan nan nan 0 0 nan 0 1 1 1 0 nan nan nan nan nan nan nan nan nan nan nan nan nan nan nan nan 0 0 11 8 nan nan nan
nan nan nan nan nan nan nan nan nan nan nan nan nan nan nan 0 1 1 1 nan nan 1 1 1 1 0 nan nan nan nan nan nan nan nan nan nan nan nan nan nan nan nan nan nan nan nan nan nan nan nan nan nan nan nan nan nan nan nan nan nan nan 2 0 nan nan nan nan nan nan nan nan nan nan nan nan nan nan nan nan nan nan nan nan nan nan nan
nan nan nan nan nan nan nan nan nan nan nan nan nan nan nan nan 1 1 0 nan nan 1 1 1 1 0 0 nan 0 0 nan nan nan nan nan nan nan nan nan nan nan nan nan nan nan nan nan nan nan nan nan nan nan nan nan nan nan nan 1 2 2 4 2 0 0 nan nan nan nan nan nan nan nan nan nan nan nan nan nan nan nan nan nan nan nan nan
nan nan nan nan nan nan nan nan nan nan nan nan nan nan nan nan 0 0 1 0 0 0 0 1 1 0 0 0 nan nan nan nan nan nan nan nan nan nan nan nan nan nan nan nan nan nan nan nan nan nan nan nan nan nan nan nan nan nan nan 4 4 3 1 nan nan nan nan nan nan nan nan nan nan nan nan nan nan nan nan nan nan nan nan nan nan nan
nan nan nan nan nan nan nan nan nan nan nan 0 nan nan nan nan nan nan 0 0 0 1 1 1 1 nan 0 0 0 0 nan nan nan nan nan nan nan nan nan nan nan nan nan nan nan nan nan nan nan nan nan nan nan nan nan nan nan nan nan 1 1 0 nan nan nan nan nan nan nan nan nan nan nan nan nan nan nan nan nan nan nan nan nan nan nan nan
nan nan nan nan nan nan nan 0 0 0 0 0 nan nan nan nan nan nan nan 0 0 1 1 nan nan 0 0 nan nan nan nan nan nan nan nan nan nan nan nan nan nan nan nan nan nan nan nan nan nan nan nan nan nan nan nan nan nan nan nan nan nan nan nan nan nan nan nan nan nan nan nan nan nan nan nan nan nan nan nan nan nan nan nan nan nan nan
nan nan nan nan nan nan nan nan nan nan nan nan nan nan nan nan 7 7 nan nan nan 0 nan 0 0 0 0 nan nan nan 1 0 nan nan nan nan nan nan nan nan nan nan nan nan nan nan nan nan nan nan nan nan nan nan nan nan nan nan nan nan nan nan nan nan nan nan nan nan nan nan nan nan nan nan nan nan nan nan nan nan nan nan nan nan nan nan
nan nan nan nan nan nan nan nan 0 0 nan 0 0 0 nan nan nan nan nan nan nan 0 nan nan nan nan 0 0 nan nan 0 0 nan nan nan nan nan nan nan nan nan nan nan nan nan nan nan nan nan nan nan nan nan nan nan nan nan nan nan nan nan nan nan nan nan nan nan nan nan nan nan nan nan nan nan nan nan nan nan nan nan nan nan nan nan nan
0 nan nan nan nan nan nan nan 1 1 0 1 1 1 0 nan nan nan nan nan nan nan nan nan nan nan 0 0 nan nan 1 1 0 0 nan nan nan nan nan nan nan nan nan nan nan nan nan nan nan nan nan 2 nan nan nan nan nan nan nan nan nan nan nan nan nan nan nan nan nan nan nan nan nan nan nan 0 nan nan 0 nan nan nan nan nan nan nan
CIN
nan nan nan nan nan nan nan nan nan nan nan nan nan nan nan nan nan nan nan nan nan nan nan nan nan nan nan nan nan nan -0 -0 -0 -0 -0 -0 -0 -0 -0 -0 -0 -0 -0 -0 -0 -0 -0 -0 -0 -0 -0 -0 -0 -0 -0 -0 -0 -0 -0 -0 -0 -0 -0 -0 -0 -0 -0 -0 -0 -0 -0 -0 -0 -0 -0 -0 -0 -0 -0 -0 -0 -0 -0 -0 -0 -0
nan nan nan nan nan nan nan nan nan nan nan nan nan nan nan nan nan nan nan nan nan nan nan nan nan nan nan nan nan nan -0 -0 -0 -0 -0 -0 -0 -0 -0 -0 -0 -0 -0 -0 -0 -0 -0 -0 -0 -0 -0 -0 -0 -0 -0 -0 -0 -0 -0 -0 -0 -0 -0 -0 -0 -0 -0 -0 -0 -0 -0 -0 -0 -0 -0 -0 -0 -0 -0 -0 -0 -0 -0 -0 -0 -0
nan nan nan nan nan nan nan nan nan nan nan nan nan nan nan nan nan nan nan nan nan nan nan nan nan nan nan nan nan nan nan -0 -0 -0 -0 -0 -0 -0 -0 -0 -0 -0 -0 -0 -0 -0 -0 -0 -0 -0 -0 -0 -0 -0 -0 -0 -0 -0 -0 -0 -0 -0 -0 -0 -0 -0 -0 -0 -0 -0 -0 -0 -0 -0 -0 -0 -0 -0 -0 -0 -0 -0 -0 -0 -0 -0
nan nan nan nan nan nan nan nan nan nan nan nan nan nan nan nan nan nan nan nan nan nan nan nan nan nan nan nan nan nan nan -0 -0 -0 -0 -0 -0 -0 -0 -0 -0 -0 -0 -0 -0 -0 -0 -0 -0 -0 -0 -0 -0 -0 -0 -0 -0 -0 -0 -0 -0 -0 -0 -0 -0 -0 -0 -0 -0 -0 -0 -0 -0 -0 -0 -0 -0 -0 -0 -0 -0 -0 -0 -0 -0 -0
nan nan nan nan nan nan nan nan nan nan nan nan nan nan nan nan nan nan nan nan nan nan nan nan nan nan nan nan nan nan nan -0 -0 -0 -0 -0 -0 -0 -0 -0 -0 -0 -0 -0 -0 -0 -0 -0 -0 -0 -0 -0 -0 -0 -0 -0 -0 -0 -0 -0 -0 -0 -0 -0 -0 -0 -0 -0 -0 -0 -0 -0 -0 -0 -0 -0 -0 -0 -0 -0 -0 -0 -0 -0 -0 -0
nan nan nan nan nan nan nan nan nan nan nan nan nan nan nan nan nan nan nan nan nan nan nan nan nan nan nan nan nan nan nan -0 -0 -0 -0 -0 -0 -0 -0 -0 -0 -0 -0 -0 -0 -0 -0 -0 -0 -0 -0 -0 -0 -0 -0 -0 -0 -0 -0 -0 -0 -0 -0 -0 -0 -0 -0 -0 -0 -0 -0 -0 -0 -0 -0 -0 -0 -0 -0 -0 -0 -0 -0 -0 -0 -0
nan nan nan nan nan nan nan nan nan nan nan nan nan nan nan nan nan nan nan nan nan nan nan nan nan nan nan nan nan nan nan -0 -0 -0 -0 -0 -0 -0 -0 -0 -0 -0 -0 -0 -0 -0 -0 -0 -0 -0 -0 -0 -0 -0 -0 -0 -0 -0 -0 -0 -0 -0 -0 -0 -0 -0 -0 -0 -0 -0 -0 -0 -0 -0 -0 -0 -0 -0 -0 -0 -0 -0 -0 -0 -0 -0
nan nan nan nan nan nan nan nan nan nan nan nan nan nan nan nan nan nan nan nan nan nan nan nan nan nan nan nan nan nan nan nan nan nan nan nan nan nan -0 -0 -0 -0 -0 -0 -0 -0 -0 -0 -0 -0 -0 -0 -0 -0 -0 -0 -0 -0 -0 -0 -0 -0 -0 -0 -0 -0 -0 -0 -0 -0 -0 -0 -0 -0 -0 -0 -0 -0 -0 -0 -0 -0 -0 -0 -0 -0
nan nan nan nan nan nan nan nan nan nan nan nan nan nan nan nan nan nan nan nan nan nan nan nan nan nan nan nan nan nan nan nan nan nan nan nan nan nan nan -0 -0 -0 -0 -0 -0 -0 -0 -0 -0 -0 -0 -0 -0 -0 -0 -0 -0 -0 -0 -0 -0 -0 -0 -0 -0 -0 -0 -0 -0 -0 -0 -0 -0 -0 -0 -0 -0 -0 -0 -0 -0 -0 -0 -0 -0 -0
nan nan nan nan nan nan nan nan nan nan nan nan nan nan nan nan nan nan nan nan nan nan nan nan nan nan nan nan nan nan nan nan nan nan nan nan nan nan nan nan nan nan -0 -0 -0 -0 -0 -0 -0 -0 -0 -0 -0 -0 -0 -0 -0 -0 -0 -0 -0 -0 -0 -0 -0 -0 -0 -0 -0 -0 -0 -0 -0 -0 -0 -0 -0 -0 -0 -0 -0 -0 -0 -0 -0 -0
nan nan nan nan nan nan nan nan nan nan nan nan nan nan nan nan nan nan nan nan nan nan nan nan nan nan nan nan nan nan nan nan nan nan nan nan nan nan nan nan nan -0 -0 -0 -0 -0 -0 -0 -0 -0 -0 -0 -0 -0 -0 -0 -0 -0 -0 -0 -0 -0 -0 -0 -0 -0 -0 -0 -0 -0 -0 -0 -0 -0 -0 -0 -0 -0 -0 -0 -0 -0 -0 -0 -0 -0
nan nan nan nan nan nan nan nan nan nan nan nan nan nan nan nan nan nan nan nan nan nan nan nan nan nan nan nan nan nan nan nan nan nan nan nan nan nan nan nan nan nan nan nan nan -0 -0 -0 -0 -0 -0 -0 -0 -0 -0 -0 -0 -0 -0 -0 -0 -0 -0 -0 -0 -0 -0 -0 -0 -0 -0 -0 -0 -0 -0 -0 -0 -0 -0 -0 -0 -0 -0 -0 -0 -0
nan nan nan nan nan nan nan nan nan nan nan nan nan nan nan nan nan nan nan nan nan nan nan nan nan nan nan nan nan nan nan nan nan nan nan nan nan nan nan nan nan nan nan nan nan nan nan -0 -0 -0 -0 -0 -0 -0 -0 -0 -0 -0 -0 -0 -0 -0 -0 -0 -0 -0 -0 -0 -0 -0 -0 -0 -0 -0 -0 -0 -0 -0 -0 -0 -0 -0 -0 -0 -0 -0
nan nan nan nan nan nan nan nan nan nan nan nan nan nan nan nan nan nan nan nan nan nan nan nan nan nan nan nan nan nan nan nan nan nan nan nan nan nan nan nan nan nan nan nan nan nan nan nan nan nan nan nan -0 -0 -0 -0 -0 -0 -0 -0 -0 -0 -0 -0 -0 -0 -0 -0 -0 -0 -0 -0 -0 -0 -0 -0 -0 -0 -0 -0 -0 -0 -0 -0 -0 -0
nan nan nan nan nan nan nan nan nan nan nan nan nan nan nan nan nan nan nan nan nan nan nan nan nan nan nan nan nan nan nan nan nan nan nan nan nan nan nan nan nan nan nan nan nan nan nan nan nan nan nan nan nan nan -0 -0 -0 -0 -0 -0 -0 -0 -0 -0 -0 -0 -0 -0 -0 -0 -0 -0 -0 -0 -0 -0 -0 -0 -0 -0 -0 -0 -0 -0 -0 -0
nan nan nan nan nan nan nan nan nan nan nan nan nan nan -1 -2 nan nan nan nan nan nan nan nan nan nan nan nan nan nan nan nan nan nan nan nan nan nan nan nan nan nan nan nan nan nan nan nan nan nan nan nan -0 -0 -0 -0 -0 -0 -0 -0 -0 -0 -0 -0 -0 -0 -0 -0 -0 -0 -0 -0 -0 -0 -0 -0 -0 -0 -0 -0 -0 -0 -0 -0 -0 -0
nan nan nan nan nan nan nan nan -3 -3 -4 -3 -3 -3 nan -4 nan nan nan nan nan nan nan nan nan nan nan nan nan nan nan nan nan nan nan nan nan nan nan nan nan nan nan nan nan nan nan nan nan nan nan -0 -0 -0 -0 -0 -0 -0 -0 -0 -0 -0 -0 -0 -0 -0 -0 -0 -0 -0 -0 -0 -0 -0 -0 -0 -0 -0 -0 -0 -0 -0 -0 -0 -0 -0
nan nan nan nan nan nan nan nan -5 -5 -5 -0 -0 -0 nan nan nan nan nan nan nan nan nan nan nan nan nan nan nan nan nan nan nan nan nan nan nan nan nan nan nan nan nan nan nan nan nan nan nan nan nan -0 -0 -0 -0 -0 -0 -0 -0 -0 -0 -0 -0 -0 -0 -0 -0 -0 -0 -0 -0 -0 -0 -0 -0 -0 -0 -0 -0 -0 -0 -0 -0 -0 -0 -0
nan nan nan nan nan nan nan nan -4 -4 -1 -0 -1 -1 nan nan nan nan nan nan nan nan nan nan nan nan nan nan nan nan nan nan nan nan nan nan nan nan nan nan nan nan nan nan nan nan nan nan nan nan -0 -0 -0 -0 -0 -0 -0 -0 -0 -0 -0 -0 -0 -0 -0 -0 -0 -0 -0 -0 -0 -0 -0 -0 -0 -0 -0 -0 -0 -0 -0 -0 -0 -0 -0 -0
nan nan -0 -1 -1 -2 nan -4 -4 -4 -0 -0 -4 -4 nan nan nan nan nan nan nan nan nan nan nan nan nan nan nan nan nan nan nan nan nan nan nan nan nan nan nan nan nan nan nan nan nan nan nan nan nan -0 -0 -0 -0 -0 -0 -0 -0 -0 -0 -0 -0 -0 -0 -0 -0 -0 -0 -0 -0 -0 -0 -0 -0 -0 -0 -0 -0 -0 -0 -0 -0 -0 -0 -0
nan nan nan nan nan nan nan nan -7 -7 -6 -3 nan nan nan nan nan nan nan nan nan nan nan nan nan nan nan nan nan nan nan nan nan nan nan nan nan nan nan nan nan nan nan nan nan nan nan nan nan nan nan -0 -0 -0 -0 -0 -0 -0 -0 -0 -0 -0 -0 -0 -0 -0 -0 -0 -0 -0 -0 -0 -0 -0 -0 -0 -0 -0 -0 -0 -0 -0 -0 -0 -0 -0
nan nan nan nan nan nan nan nan nan nan nan nan nan nan nan nan nan nan nan nan nan nan nan nan nan nan nan nan nan nan nan nan nan nan nan nan nan nan nan nan nan nan nan nan nan nan nan nan nan nan nan -0 -0 -0 -0 -0 -0 -0 -0 -0 -0 -0 -0 -0 -0 -0 -0 -0 -0 -0 -0 -0 -0 -0 -0 -0 -0 -0 -0 -0 -0 -0 -0 -0 -0 -0
nan nan nan nan nan nan nan nan nan nan nan nan nan nan nan nan nan nan nan nan nan nan nan nan nan nan nan nan nan nan nan nan nan nan nan nan nan nan nan nan nan nan nan nan nan nan nan nan nan nan nan -0 -0 -0 -0 -0 -0 -0 -0 -0 -0 -0 -0 -0 -0 -0 -0 -0 -0 -0 -0 -0 -0 -0 -0 -0 -0 -0 -0 -0 -0 -0 -0 -0 -0 -0
nan nan nan nan nan nan nan nan nan nan nan nan nan nan nan nan nan nan nan nan nan nan nan nan nan nan nan nan nan nan nan nan nan nan nan nan nan nan nan nan nan nan nan nan nan nan nan nan nan nan nan -0 -0 -0 -0 -0 -0 -0 -0 -0 -0 -0 -0 -0 -0 -0 -0 -0 -0 -0 -0 -0 -0 -0 -0 -0 -0 -0 -0 -0 -0 -0 -0 -0 -0 -0
nan nan nan nan nan nan nan nan nan nan nan nan nan nan nan nan -11 -11 nan nan nan nan nan nan nan nan nan nan nan nan nan nan nan nan nan nan nan nan nan nan nan nan nan nan nan nan nan nan nan nan nan nan -0 -0 -0 -0 -0 -0 -0 -0 -0 -0 -0 -0 -0 -0 -0 -0 -0 -0 -0 -0 -0 -0 -0 -0 -0 -0 -0 -0 -0 -0 -0 -0 -0 -0
nan nan nan nan nan -16 -3 -0 -0 -0 -5 nan nan nan nan -15 nan nan nan nan nan nan nan nan nan nan nan nan nan nan nan nan nan nan nan nan nan nan nan nan nan nan nan nan nan nan nan nan nan nan nan nan nan nan -0 -0 -0 -0 -0 -0 -0 -0 -0 -0 -0 -0 -0 -0 -0 -0 -0 -0 -0 -0 -0 -0 -0 -0 -0 -0 -0 -0 -0 -0 -0 -0
-0 -0 -0 -0 -0 -0 -0 -0 -0 -0 -0 -0 -26 -26 nan nan nan nan nan nan nan nan nan nan nan nan nan nan nan nan nan nan nan nan nan nan nan nan nan nan nan nan nan nan nan nan nan nan nan nan nan nan nan nan -0 -0 -0 -0 -0 -0 -0 -0 -0 -0 -0 -0 -0 -0 -0 -0 -0 -0 -0 -0 -0 -0 -0 -0 -0 -0 -0 -0 -0 -0 -0 -0
-0 -0 -0 -0 -0 -0 -0 -0 -0 -0 -0 -0 -0 -0 -6 nan nan nan nan nan nan nan nan nan nan nan nan nan nan nan nan nan nan nan nan nan nan nan nan nan nan nan nan nan nan nan nan nan nan nan nan nan nan nan nan -0 -0 -0 -0 -0 -0 -0 -0 -0 -0 -0 -0 -0 -0 -0 -0 -0 -0 -0 -0 -0 -0 -0 -0 -0 -0 -0 -0 -0 -0 -6
nan nan nan nan nan -0 -0 -0 -0 -0 -0 -0 -0 -0 -5 nan nan nan nan nan nan nan -6 -2 -2 -2 nan nan nan nan nan nan nan nan nan nan nan nan nan nan nan nan nan nan nan nan nan nan nan nan nan nan nan nan nan -0 -0 -0 -0 -0 -0 -0 -0 -0 -0 -0 -0 -0 -0 -0 -0 -0 -0 -0 -0 -0 -0 -0 -0 -0 -0 -0 -0 -1 -1 -9
nan nan nan nan nan nan nan nan nan nan -0 -0 -0 -0 -0 nan nan nan nan nan nan nan -4 -1 -1 -2 -4 -5 nan nan nan nan nan nan nan nan nan nan nan nan nan nan nan nan nan nan nan nan nan nan nan nan nan nan nan nan nan nan nan -0 -0 -0 -0 -0 -0 -0 -0 -0 -0 -0 -0 -0 -0 -0 -0 -0 -0 -0 -0 -0 -0 -0 -2 -8 -8 -8
nan nan nan nan nan nan nan nan nan nan -0 -0 -0 -0 -21 nan nan nan nan nan nan nan -7 -4 -4 -4 -3 -3 nan nan nan nan nan nan nan nan nan nan nan nan nan nan nan nan nan nan nan nan nan nan nan nan nan nan nan nan nan nan nan nan nan nan -0 -0 -0 -0 -0 -0 -0 -0 -0 -0 -0 -0 -0 -0 -0 -0 -0 -0 -0 -0 -6 -10 -10 -8
nan nan nan nan nan nan nan nan nan nan nan nan nan nan nan nan -19 -19 nan nan nan nan nan -5 -5 -3 -2 -2 -1 -1 nan nan nan nan -11 -10 -11 -11 -14 -13 -13 -14 nan nan nan nan nan nan nan nan nan nan nan nan nan nan nan nan nan nan nan nan nan -0 -0 -0 -0 -0 -0 -0 -0 -0 -0 -0 -0 -0 -0 -0 -0 -0 -0 -0 -2 -9 -9 -5
nan nan nan nan nan nan nan nan nan nan nan nan nan nan nan nan nan nan nan nan nan nan nan -5 -5 -2 -3 -4 -5 -5 nan nan -12 -12 -2 -11 -8 -8 -11 -11 -11 -12 -15 -15 -15 nan nan nan nan nan nan nan nan nan nan nan nan nan nan nan nan nan nan nan nan nan nan -2 -0 -0 -0 -0 -0 -0 -0 -0 -0 -0 -0 -0 -0 -0 -0 -8 -8 -6
nan nan nan nan nan nan nan nan nan nan nan nan nan nan nan nan nan nan nan nan nan nan -18 -9 -9 -3 -2 -2 -3 -3 nan nan -7 -7 -0 -9 -6 -6 -7 -10 -10 -10 -11 -10 -10 -13 nan nan nan nan nan nan nan nan nan nan nan nan nan nan nan nan nan nan nan nan nan nan nan nan nan nan -0 -0 -0 -0 -0 -0 -0 -0 -0 -0 -0 -0 -0 -3
nan nan nan nan nan nan nan nan nan nan nan nan nan nan nan nan nan nan -9 -3 -3 nan nan nan nan -12 -5 -3 -1 -1 -1 nan -14 -14 -0 -6 -6 -6 -6 -8 -8 -8 -7 -8 -8 -10 -12 -10 -10 -4 -8 nan nan nan nan nan nan nan nan nan nan nan nan nan nan nan nan nan nan nan nan nan nan nan -4 -0 -0 -0 -0 -0 -0 -0 -0 -0 -0 -0
nan nan nan nan nan nan nan nan nan nan nan nan nan nan nan nan nan nan nan nan nan -11 -11 -12 -12 -15 -17 -12 -5 -5 -4 nan nan nan -2 -9 nan nan nan -6 -6 -6 -6 -8 -8 -9 -9 -8 -8 -3 -2 -7 nan nan nan nan nan nan nan nan nan nan nan nan nan nan nan nan nan nan nan nan nan nan -13 -0 -0 -0 -0 -0 -0 -0 -0 -0 -0 -0
nan nan nan nan nan nan nan nan nan nan nan nan nan nan nan -8 -8 -8 nan nan nan nan -22 -10 -10 -11 -6 -20 -17 -17 nan nan nan nan nan nan nan nan nan nan nan -3 -8 -8 -8 -8 -8 -6 -6 -6 -6 -8 nan nan nan nan nan nan nan nan nan nan nan nan nan nan nan nan nan nan nan nan -20 -20 -9 -0 -0 -0 -0 -0 -0 -0 -0 -0 -0 -0
nan nan nan nan nan nan nan nan nan nan nan nan nan nan nan -11 nan nan nan nan nan nan nan nan nan nan -0 -1 nan nan nan nan nan nan nan nan nan nan nan nan nan -9 -13 -12 -12 -10 -8 -8 -8 -7 -6 nan -3 -3 -4 -9 -9 nan nan nan nan nan nan nan nan nan nan nan nan nan -14 -20 nan nan nan -18 nan nan nan nan nan -1 -0 -0 -0 -0
nan nan nan nan nan nan nan nan nan nan nan nan nan nan nan nan nan nan nan nan nan nan nan nan nan nan nan nan nan nan nan nan nan nan nan nan nan nan nan nan nan nan -25 -20 -20 -15 -11 -10 -10 -8 -5 -7 -7 -7 -11 nan nan nan nan nan nan nan nan nan nan nan nan nan nan nan nan nan nan nan nan nan nan nan nan nan nan -8 -6 -12 -12 -0
nan nan nan nan nan nan nan nan nan nan nan -9 -2 -2 -5 -9 nan nan nan nan nan nan nan nan nan nan nan nan nan nan nan nan nan nan nan nan nan nan nan nan nan nan -20 -25 -25 -18 -14 -8 -8 -5 -2 -6 -6 -6 -8 nan nan nan -3 -9 -9 nan nan nan nan nan nan nan nan nan nan nan nan nan nan nan nan nan nan nan nan -15 -9 -11 -11 nan
nan nan nan nan nan nan nan nan nan nan nan -8 -12 -12 -13 -9 -12 -12 -8 nan nan nan nan nan nan nan nan nan nan nan nan nan nan nan nan nan nan nan nan nan nan nan -22 -19 -19 -17 -11 -9 -9 -6 -6 -7 -5 -5 -6 nan nan -2 -0 -5 -5 nan nan nan nan nan nan nan nan nan nan nan nan nan nan nan nan nan nan nan nan nan -13 nan nan nan
nan nan nan nan nan nan nan nan -5 -5 -6 -14 nan nan nan -11 nan nan -12 -12 -12 -13 -14 -12 -12 -12 nan nan nan nan nan nan nan nan nan nan nan nan nan nan nan nan -25 -17 -17 -16 -13 -8 -8 -6 -8 -9 -7 -7 nan nan nan -10 -3 -8 -8 nan -9 nan nan nan nan nan nan nan nan nan nan nan nan nan nan nan nan nan nan -8 -7 nan nan nan
nan nan nan nan nan nan nan -5 -7 -7 -8 nan nan nan nan -13 -11 -11 -7 nan nan -10 -8 -10 -10 -12 nan nan nan nan nan nan nan nan nan nan nan nan nan nan nan nan nan nan nan nan -14 -12 -12 -10 -11 -13 nan nan nan -7 -7 nan -12 -8 -8 -9 -10 nan nan nan nan nan nan nan nan nan nan nan nan nan nan nan nan -18 -18 -1 -2 nan nan nan
nan nan nan nan nan nan nan nan nan nan nan nan nan nan nan -16 -9 -9 -6 nan nan -7 -8 -12 -12 -11 nan nan nan nan nan nan nan nan nan nan nan nan nan nan nan nan nan nan nan nan nan nan nan nan nan nan nan nan nan nan nan nan nan nan nan -14 -12 nan nan nan nan nan nan nan nan nan nan nan nan nan nan nan nan nan nan nan nan nan nan nan
nan nan nan nan nan nan nan nan nan nan nan nan nan nan nan nan -6 -6 -8 nan nan -9 -9 -10 -10 -7 -6 nan -6 -6 nan nan nan nan nan nan nan nan nan nan nan nan nan nan nan nan nan nan nan nan nan nan nan nan nan nan nan nan -9 -13 -13 -15 -23 -31 -31 nan nan nan nan nan nan nan nan nan nan nan nan nan nan nan nan nan nan nan nan nan
nan nan nan nan nan nan nan nan nan nan nan nan nan nan nan nan -17 -17 -11 -11 -11 -11 -13 -11 -11 -5 -4 -5 nan nan nan nan nan nan nan nan nan nan nan nan nan nan nan nan nan nan nan nan nan nan nan nan nan nan nan nan nan nan nan -12 -12 -20 -27 nan nan nan nan nan nan nan nan nan nan nan nan nan nan nan nan nan nan nan nan nan nan nan
nan nan nan nan nan nan nan nan nan nan nan -8 nan nan nan nan nan nan -17 -13 -13 -11 -10 -10 -10 nan -5 -5 -7 -7 nan nan nan nan nan nan nan nan nan nan nan nan nan nan nan nan nan nan nan nan nan nan nan nan nan nan nan nan nan -22 -22 -26 nan nan nan nan nan nan nan nan nan nan nan nan nan nan nan nan nan nan nan nan nan nan nan nan
nan nan nan nan nan nan nan -9 -10 -10 -11 -9 nan nan nan nan nan nan nan -17 -17 -11 -4 nan nan -7 -6 nan nan nan nan nan nan nan nan nan nan nan nan nan nan nan nan nan nan nan nan nan nan nan nan nan nan nan nan nan nan nan nan nan nan nan nan nan nan nan nan nan nan nan nan nan nan nan nan nan nan nan nan nan nan nan nan nan nan nan
nan nan nan nan nan nan nan nan nan nan nan nan nan nan nan nan -0 -0 nan nan nan -13 nan -8 -8 -6 -5 nan nan nan -2 -7 nan nan nan nan nan nan nan nan nan nan nan nan nan nan nan nan nan nan nan nan nan nan nan nan nan nan nan nan nan nan nan nan nan nan nan nan nan nan nan nan nan nan nan nan nan nan nan nan nan nan nan nan nan nan
nan nan nan nan nan nan nan nan -9 -9 nan -9 -9 -9 nan nan nan nan nan nan nan -16 nan nan nan nan -6 -7 nan nan -6 -11 nan nan nan nan nan nan nan nan nan nan nan nan nan nan nan nan nan nan nan nan nan nan nan nan nan nan nan nan nan nan nan nan nan nan nan nan nan nan nan nan nan nan nan nan nan nan nan nan nan nan nan nan nan nan
-10 nan nan nan nan nan nan nan -6 -6 -5 -5 -7 -7 -10 nan nan nan nan nan nan nan nan nan nan nan -6 -7 nan nan -4 -8 -11 -11 nan nan nan nan nan nan nan nan nan nan nan nan nan nan nan nan nan -10 nan nan nan nan nan nan nan nan nan nan nan nan nan nan nan nan nan nan nan nan nan nan nan -18 nan nan -12 nan nan nan nan nan nan nan
Wind_Speed
3 3 3 4 4 4 4 4 4 4 4 4 5 5 5 6 6 6 7 8 8 7 7 8 8 8 10 13 16 18 20 20 21 21 21 20 20 19 19 20 20 21 21 22 22 22 22 22 22 21 21 21 20 20 20 21 21 21 22 22 22 23 23 24 24 25 25 26 26 26 26 26 26 26 25 25 26 26 26 26 26 26 26 26 26 26
3 3 3 4 4 3 3 4 4 4 5 5 5 5 6 6 5 5 6 7 7 7 7 7 8 8 8 10 14 18 20 21 21 21 21 20 20 20 20 20 21 21 22 22 22 22 22 22 22 21 21 21 20 20 20 20 21 21 22 22 22 23 23 24 24 25 25 26 26 26 26 25 25 25 25 25 25 26 26 26 26 27 26 26 26 27
3 3 3 3 3 3 3 3 3 4 5 5 5 5 6 6 5 5 5 6 7 7 7 7 7 7 8 9 13 17 19 21 21 21 20 20 20 20 20 21 22 22 22 22 22 22 22 22 22 21 21 20 20 20 20 20 21 21 21 22 22 23 23 24 24 25 25 25 26 25 25 25 25 25 25 25 26 26 26 27 27 27 27 27 27 27
2 3 3 3 2 2 2 2 3 3 4 4 5 5 6 5 5 5 5 5 6 6 6 6 6 7 6 7 11 15 19 20 21 21 20 20 20 20 21 22 22 23 23 23 23 22 22 22 22 21 21 20 20 20 20 20 21 21 21 22 22 23 23 24 24 25 25 25 25 25 25 25 25 25 25 26 26 26 27 27 27 27 28 28 28 28
2 2 3 2 2 2 2 2 2 3 4 4 4 4 5 4 4 4 5 5 5 6 6 6 6 6 6 6 9 14 18 20 20 20 20 20 20 21 21 22 23 23 23 23 23 23 22 22 22 21 21 20 20 20 21 21 21 21 22 22 22 23 23 24 24 24 25 25 25 25 25 25 25 25 25 26 26 26 27 27 28 28 28 28 28 28
2 2 2 2 2 2 2 2 3 4 4 4 4 4 3 4 4 4 5 5 5 5 5 5 5 5 6 6 9 13 17 18 19 19 19 20 20 21 22 22 23 23 23 23 23 23 23 22 22 21 21 21 21 21 21 21 22 22 22 23 23 23 24 24 24 24 24 24 25 25 25 25 25 25 25 25 26 26 27 27 28 28 28 28 28 28
2 2 2 2 2 1 1 2 3 4 4 3 3 3 3 3 4 4 4 5 4 4 4 4 4 5 5 7 9 11 13 14 16 17 17 19 20 20 21 22 22 23 23 23 23 23 23 22 22 21 21 21 21 21 21 22 22 22 23 23 24 24 24 24 24 24 24 24 24 24 25 25 25 25 25 25 26 26 27 27 28 28 28 28 28 29
2 2 2 2 2 2 2 2 3 4 4 3 3 3 3 4 3 3 4 4 4 4 4 4 4 5 5 6 7 8 8 9 10 11 13 15 17 18 20 21 21 22 22 22 23 23 22 22 22 21 21 21 22 22 22 22 23 23 23 24 24 24 25 25 25 24 24 24 24 24 24 24 25 25 25 26 26 26 27 27 28 28 28 28 28 29
2 3 2 2 2 2 2 2 3 4 4 3 3 3 4 4 4 4 4 4 4 4 4 5 5 5 5 5 5 6 7 8 8 9 11 11 13 15 17 18 19 20 21 21 22 22 22 22 22 22 22 22 22 22 23 23 23 24 24 24 25 25 25 25 25 25 25 24 24 24 24 24 25 25 25 25 26 26 27 27 27 28 28 28 28 29
2 2 2 2 2 1 2 2 3 3 4 3 3 3 3 4 5 5 5 4 4 4 4 5 6 6 6 6 5 5 6 8 10 12 13 13 14 16 16 16 16 17 20 20 21 21 21 21 22 22 22 22 23 23 23 23 24 24 25 25 25 25 25 25 25 25 25 25 24 24 24 25 25 25 25 25 26 26 26 26 27 27 27 28 28 29
3 2 2 2 2 2 2 2 2 3 3 3 3 3 3 3 4 6 7 7 6 6 5 5 6 6 6 6 5 5 6 7 8 10 11 13 15 16 16 16 16 16 18 18 19 19 20 21 22 22 22 22 23 23 23 24 24 25 25 25 26 26 26 26 25 25 25 25 25 25 25 25 25 25 25 25 25 26 26 26 26 26 27 27 28 28
3 2 2 2 2 2 3 2 2 2 3 3 3 4 4 4 4 5 6 7 8 8 7 6 5 5 5 5 5 5 6 6 7 7 7 8 10 11 11 12 12 13 14 15 15 17 19 20 21 21 21 22 23 23 24 24 25 25 26 26 26 26 26 26 25 25 25 25 25 25 25 25 25 25 26 25 25 25 25 25 26 26 26 26 27 28
2 2 2 2 2 2 3 3 3 3 3 3 4 4 5 5 5 5 5 6 7 7 7 6 5 4 4 4 4 5 6 7 7 7 7 7 7 8 8 8 9 9 9 10 10 11 15 18 19 19 20 21 22 23 25 25 25 26 26 26 26 26 26 26 26 25 25 25 25 25 26 26 26 26 26 25 25 25 25 25 26 26 26 26 27 27
3 2 2 2 3 3 3 3 3 3 3 3 4 4 4 4 5 5 5 5 6 6 5 5 5 4 3 3 4 5 6 7 7 7 7 7 7 7 7 8 8 8 8 8 8 9 12 13 13 14 18 19 21 22 23 24 26 27 27 27 27 27 26 26 26 25 25 25 26 26 26 26 26 26 26 26 26 26 26 26 26 26 26 26 27 27
3 3 3 3 2 3 3 3 3 3 3 3 3 4 4 5 5 5 5 6 6 6 5 5 5 4 3 3 4 5 7 8 8 8 9 8 7 7 7 7 8 7 7 7 8 8 11 10 9 10 13 16 19 21 23 24 25 27 27 27 27 27 26 26 26 26 26 26 26 27 27 27 27 26 26 26 26 26 26 26 26 26 26 26 27 27
2 2 2 2 3 3 3 3 3 3 3 3 4 4 5 5 5 5 5 5 5 5 5 6 6 5 3 3 4 5 7 8 8 8 9 8 7 6 6 7 7 7 7 7 7 8 8 8 8 9 11 16 20 24 26 25 26 27 27 27 27 27 26 26 26 26 26 27 27 27 27 27 27 27 26 26 26 26 26 27 27 26 26 26 27 27
2 2 2 2 2 3 3 3 3 3 3 3 4 4 4 4 4 4 4 4 4 4 4 5 5 5 5 4 4 5 7 7 7 8 8 8 7 6 6 6 7 7 7 7 7 7 7 8 8 9 10 16 22 25 26 26 26 27 27 27 27 26 26 26 27 27 27 28 28 28 27 27 27 27 27 27 27 27 27 27 27 26 26 26 26 27
2 2 2 2 2 2 3 2 2 3 3 3 4 4 3 3 3 3 3 3 4 4 4 4 4 4 5 5 5 5 6 6 7 7 8 8 7 6 5 5 6 6 7 7 7 7 7 7 7 9 12 19 23 25 26 26 26 26 27 26 26 26 27 27 27 28 28 28 28 28 28 27 27 27 27 27 27 27 27 27 27 26 26 26 26 27
2 2 2 2 2 2 3 2 3 3 3 3 3 3 3 3 3 3 3 3 4 4 4 4 4 3 4 5 6 6 6 6 6 7 7 7 7 6 4 5 5 6 6 7 7 7 7 7 9 13 17 21 24 25 25 26 26 26 26 26 26 27 27 28 28 28 28 28 28 28 28 28 27 27 27 27 27 27 27 27 27 26 26 26 26 27
2 2 2 2 2 2 2 2 2 3 3 3 3 3 3 3 3 4 4 4 4 4 4 4 4 4 4 5 6 6 6 6 5 5 6 6 6 5 4 5 5 6 7 7 6 6 7 7 9 12 17 20 22 24 25 25 25 26 26 26 27 27 28 28 28 29 29 28 28 28 28 28 28 28 28 28 28 28 27 27 27 27 26 26 27 27
2 2 1 1 1 1 1 1 2 3 4 4 3 3 3 3 3 4 4 4 4 5 5 4 4 4 4 5 6 7 6 5 5 5 4 5 5 5 4 4 5 6 7 7 6 6 7 7 7 9 13 18 21 23 24 25 25 25 25 26 27 28 28 28 29 29 28 28 28 28 28 28 28 28 28 28 28 28 28 27 27 27 27 27 27 28
2 2 2 1 1 1 2 2 2 3 3 3 3 3 3 3 4 4 4 4 5 5 5 5 5 5 5 5 6 6 5 4 4 4 4 5 5 5 4 4 5 6 7 7 6 6 7 7 7 9 13 18 21 23 24 24 24 25 25 26 27 28 28 28 28 28 28 28 28 28 28 28 28 29 28 28 28 28 28 27 27 27 27 28 28 28
2 2 2 2 2 2 2 3 3 3 3 2 2 2 2 2 3 4 4 4 4 5 5 5 5 5 5 5 5 5 4 4 3 4 4 5 5 5 4 4 5 6 6 6 6 7 7 7 7 9 12 17 20 21 22 23 24 24 25 26 27 28 28 28 28 28 28 28 28 28 28 29 29 29 29 28 28 28 28 27 27 27 28 28 28 29
3 3 3 3 3 3 3 3 3 3 3 2 2 2 1 2 2 2 3 3 4 4 4 5 5 5 4 5 5 4 4 3 3 3 3 4 5 5 5 5 6 7 7 6 6 7 8 7 7 8 9 14 18 20 21 22 23 24 25 26 27 27 27 28 28 28 28 28 28 28 29 29 29 29 29 28 28 28 27 27 27 28 28 29 29 29
4 4 4 4 4 5 4 4 4 4 3 2 2 2 2 2 3 3 3 3 3 4 4 5 5 5 4 4 4 3 3 3 3 3 3 4 5 5 5 5 6 7 7 7 6 7 7 7 7 7 7 10 14 18 20 22 23 24 25 26 26 27 27 27 27 27 28 28 28 29 29 29 29 29 28 28 28 28 27 27 28 28 28 29 28 28
3 3 4 5 6 7 8 8 8 8 7 5 3 2 2 2 2 2 2 2 3 4 5 5 5 5 4 4 4 3 3 3 3 2 2 3 5 5 5 5 5 6 8 7 7 7 7 7 7 6 6 7 11 15 19 21 23 24 25 25 26 26 26 26 27 27 27 28 28 29 29 29 29 28 28 28 28 27 27 27 28 28 28 28 27 25
7 7 8 8 9 9 10 10 10 10 10 8 7 5 3 2 1 2 2 2 3 4 5 5 6 6 5 4 4 4 4 3 3 2 2 3 5 5 5 5 6 7 8 7 7 7 8 8 7 6 5 5 7 11 17 20 22 24 24 24 25 25 25 26 26 27 27 28 28 28 28 28 28 28 28 28 27 27 27 28 28 28 27 25 22 20
9 9 9 10 10 10 10 10 10 10 10 10 9 8 5 2 1 2 3 3 3 3 4 5 6 6 5 5 5 5 4 3 3 2 2 3 4 5 5 5 6 7 8 8 7 7 8 7 6 5 5 6 7 9 14 18 20 21 22 23 23 24 24 25 26 26 27 27 28 28 28 28 28 28 27 27 27 27 27 27 27 26 23 19 15 13
7 8 8 9 9 10 10 9 9 10 10 10 10 8 5 1 1 2 3 3 3 3 4 5 5 6 6 6 6 5 4 3 2 2 3 4 5 5 5 6 6 7 8 8 7 6 5 4 4 4 4 7 8 9 10 13 15 16 17 20 21 22 23 24 25 26 26 27 27 27 27 27 27 27 27 27 27 27 27 27 26 23 17 14 12 11
4 5 5 6 7 7 7 6 7 8 9 9 9 8 6 1 1 2 3 2 3 3 5 5 6 6 6 6 6 5 3 3 2 3 4 5 5 5 6 6 6 7 7 7 7 6 5 4 3 4 5 7 8 8 8 9 10 10 11 14 16 18 21 23 24 25 25 26 26 27 27 27 27 27 27 27 27 27 27 27 24 19 12 11 11 11
2 2 2 3 4 4 4 4 4 5 6 7 7 7 5 2 1 2 2 2 2 3 4 5 5 6 6 5 5 5 4 3 3 4 5 5 5 5 6 6 7 6 6 6 7 7 7 6 5 5 6 7 8 8 8 8 8 8 8 9 11 13 18 21 22 23 23 24 25 25 26 26 26 26 26 26 26 26 26 26 23 18 12 11 11 11
2 2 2 2 2 2 3 3 3 3 3 4 4 4 4 4 3 2 2 2 2 3 4 5 5 6 6 5 5 5 4 4 5 6 6 5 5 5 5 6 7 6 5 5 5 6 7 7 7 6 6 7 7 7 8 8 8 8 8 9 9 11 16 18 19 19 19 20 22 23 24 25 25 26 26 26 26 26 26 26 23 19 13 11 11 12
2 2 2 2 2 2 3 3 2 2 3 2 2 3 3 4 4 4 3 3 3 3 4 5 5 6 6 6 6 5 5 4 6 7 8 6 5 5 5 6 7 7 6 5 5 6 6 7 7 7 7 7 7 7 7 8 8 8 8 9 9 10 13 14 14 14 14 16 17 19 20 22 23 24 25 25 25 25 25 26 24 21 16 13 11 12
2 2 2 2 2 2 2 3 3 3 3 2 2 2 3 3 3 4 4 4 3 3 3 4 5 6 6 6 6 6 5 5 6 8 9 6 5 5 6 7 7 8 7 6 6 6 6 7 8 8 8 7 7 6 7 7 8 8 7 8 8 9 11 11 11 11 12 12 12 13 14 16 18 19 21 22 23 24 25 25 25 24 21 16 13 12
2 2 2 2 2 2 2 2 3 3 3 2 2 3 3 3 3 3 4 4 4 4 4 4 4 5 6 6 7 7 7 6 7 9 9 7 6 5 6 7 7 8 8 7 7 7 6 8 9 10 9 9 7 6 6 6 7 7 7 8 8 8 9 9 9 10 10 11 10 10 11 11 12 14 16 19 21 23 25 26 26 25 24 21 18 14
2 2 2 2 2 2 2 2 2 3 3 2 2 3 3 3 4 4 4 4 4 5 5 5 5 5 5 6 6 7 8 7 8 9 10 8 7 6 6 6 7 8 8 8 8 8 7 9 10 10 11 10 9 7 7 7 7 8 8 8 9 9 9 9 9 9 9 10 10 10 10 10 11 12 13 18 21 23 25 25 25 25 24 24 22 19
2 2 2 2 2 2 2 2 2 2 2 2 3 3 4 4 4 4 4 4 4 5 5 6 6 6 7 6 6 7 8 8 8 9 9 8 7 6 6 6 7 8 8 8 8 9 9 9 10 10 10 9 8 8 8 9 8 8 8 8 9 9 9 9 9 9 9 10 10 11 11 11 11 12 13 18 20 21 21 22 22 22 23 23 23 22
2 2 2 2 2 2 2 2 2 2 2 3 3 3 4 4 5 5 5 5 5 5 5 5 5 7 9 9 9 9 9 9 9 10 10 8 7 6 7 7 7 8 7 8 8 9 9 9 10 10 9 9 9 10 10 10 10 9 9 9 9 9 9 9 9 9 9 10 11 11 12 11 11 11 12 13 13 13 14 14 15 17 20 20 20 21
2 2 2 2 2 2 2 2 2 3 3 3 4 4 5 5 5 5 5 5 5 5 5 5 5 6 7 8 9 9 10 9 9 9 9 7 6 6 7 7 7 7 7 7 7 8 8 9 9 9 10 10 10 10 10 10 10 10 11 10 9 8 8 9 9 9 9 9 10 11 11 10 10 10 10 10 10 11 12 12 13 14 15 14 15 16
2 2 2 2 2 2 2 2 3 3 4 4 5 5 5 5 5 4 4 4 5 5 5 5 5 5 6 6 7 8 8 7 7 8 7 6 5 5 6 7 7 7 7 7 6 7 8 8 9 10 10 10 10 10 10 9 10 11 12 10 9 8 9 9 9 9 8 8 9 10 10 10 10 10 10 10 10 11 11 11 11 12 12 11 11 11
2 2 2 2 3 3 3 3 4 4 4 4 5 4 4 4 4 4 5 4 5 5 5 5 5 6 6 6 6 6 7 7 7 7 6 6 6 6 6 6 7 7 7 7 7 7 8 9 9 10 10 10 11 11 11 11 12 13 14 11 10 10 10 11 10 9 9 8 9 9 11 11 11 11 11 11 11 10 10 10 11 11 11 10 9 8
3 3 3 3 3 3 3 4 4 5 5 4 4 4 4 4 4 4 5 5 5 5 5 5 5 6 7 6 5 5 6 6 7 7 7 7 7 7 6 6 6 6 7 7 8 8 8 9 9 10 10 10 11 11 11 11 12 12 12 11 12 12 11 10 8 8 9 9 9 10 11 11 11 11 11 11 11 10 10 10 12 12 12 10 8 7
3 3 3 3 3 3 4 4 5 4 4 4 3 3 4 4 4 5 5 5 5 6 6 5 5 6 7 6 6 5 5 5 6 6 7 7 7 7 6 6 6 6 6 7 7 8 9 9 9 9 10 10 10 11 12 12 11 11 11 11 12 11 8 7 7 7 8 9 10 10 10 10 10 10 11 11 11 10 10 11 12 13 12 10 9 8
3 3 3 3 3 3 4 4 3 3 4 3 3 4 4 4 5 5 5 5 5 6 6 5 5 6 6 7 7 6 5 4 5 5 6 7 7 7 7 6 6 6 5 6 7 8 8 9 9 9 10 10 10 11 11 11 11 11 10 11 11 10 9 8 9 9 9 9 9 9 10 10 10 11 11 10 10 10 9 9 9 9 10 9 9 9
3 3 3 3 3 3 3 3 3 3 4 4 4 4 4 4 5 5 5 5 5 6 6 5 5 5 6 6 7 7 6 5 5 5 5 7 8 9 7 6 6 6 6 6 6 6 7 9 10 10 9 9 10 10 11 11 11 11 11 11 11 10 10 9 10 10 10 10 10 10 10 10 11 11 11 11 10 10 9 9 9 9 9 8 8 8
2 3 3 3 3 3 4 4 4 4 4 4 4 4 4 4 4 4 5 5 5 5 5 5 5 5 6 7 7 7 6 6 5 5 4 5 5 5 5 5 6 6 6 6 6 6 7 8 9 10 10 10 10 10 10 10 11 11 11 11 10 10 10 9 9 10 10 11 11 11 12 11 11 11 11 11 11 10 9 9 10 10 9 9 8 8
2 2 3 3 3 3 4 4 4 4 4 5 4 4 4 4 4 4 4 4 5 5 5 5 5 6 7 7 7 7 7 7 7 6 6 5 5 5 5 5 6 6 6 6 7 7 8 8 9 9 10 10 10 10 10 9 10 10 10 10 10 10 10 9 9 9 10 11 11 11 11 11 11 11 11 11 11 10 10 9 9 9 9 9 9 8
3 3 3 3 3 3 4 4 4 4 4 5 5 4 4 4 5 5 4 4 4 5 6 5 5 6 7 7 7 7 8 8 8 7 7 6 6 5 5 5 5 6 7 7 8 8 8 9 9 9 8 9 9 10 10 9 9 9 9 10 10 10 10 10 10 10 10 10 11 12 11 10 11 11 12 12 11 10 10 10 9 9 9 9 9 9
3 3 3 3 3 4 4 4 4 4 5 5 5 5 4 5 6 6 5 4 4 4 4 5 6 7 7 7 7 7 8 8 8 7 7 6 6 6 6 5 6 6 6 6 6 6 7 8 8 9 8 8 8 9 10 10 9 9 9 9 9 10 10 10 10 10 10 11 12 12 11 10 10 10 11 11 12 12 11 11 10 9 8 8 9 9
3 3 3 3 4 4 4 4 5 5 5 6 6 5 4 4 4 4 4 4 4 4 4 5 6 7 7 7 7 8 8 8 7 7 6 6 6 6 6 6 7 7 7 6 5 5 5 5 5 7 8 8 8 8 8 9 9 9 8 8 8 9 10 10 10 10 11 11 12 12 12 10 10 9 8 10 12 13 13 12 11 10 8 9 9 10
3 3 3 3 4 4 4 4 5 5 6 6 6 6 5 4 4 4 4 4 4 5 5 5 5 6 7 8 8 8 8 8 8 8 7 6 6 7 8 7 8 8 8 7 6 6 5 5 5 5 7 9 9 9 7 8 9 9 9 8 8 8 9 9 10 11 11 11 11 11 11 10 9 8 8 9 10 12 12 12 12 11 10 10 10 11
Wind_Direction
3 355 351 359 3 1 348 355 5 13 10 6 4 2 359 359 357 357 2 4 1 355 350 346 342 339 338 342 344 346 348 348 348 348 347 348 348 349 349 350 349 349 347 346 345 344 343 343 343 342 342 343 344 345 346 347 347 346 346 346 345 345 344 342 341 339 337 336 335 334 333 332 331 329 327 326 325 324 324 323 323 324 324 324 323 322
352 349 345 353 358 359 342 349 3 16 16 9 4 0 357 356 355 356 0 1 358 354 348 343 340 338 337 338 342 345 346 346 346 346 346 347 347 348 349 349 349 347 346 345 344 343 342 342 342 342 342 342 344 345 346 347 346 346 346 345 345 344 343 342 340 338 336 335 334 333 332 331 330 329 328 327 326 326 325 325 325 325 325 324 323 321
344 346 344 348 352 354 342 345 1 17 21 12 4 359 355 355 356 357 358 356 353 349 345 341 338 337 336 337 341 344 344 345 345 345 345 346 347 348 348 348 347 346 345 344 343 342 342 341 341 341 341 342 343 345 346 346 346 345 345 345 344 343 342 340 339 337 336 335 334 333 332 331 331 330 329 328 328 327 327 327 327 327 326 325 323 321
336 345 342 344 348 347 335 344 2 15 20 13 4 357 356 357 357 356 353 350 347 344 340 338 337 336 337 338 340 341 343 343 344 344 344 345 346 347 348 347 346 345 344 343 342 342 341 341 341 341 341 342 343 344 345 345 345 344 344 343 342 342 340 339 338 336 335 334 333 333 332 332 331 330 330 329 329 328 328 329 328 328 326 325 323 321
327 336 339 344 344 337 326 349 10 17 15 10 2 357 357 358 356 352 348 346 344 341 338 337 337 337 336 336 337 339 340 341 342 343 343 344 345 346 346 345 345 344 343 343 342 341 341 340 340 341 341 342 343 344 344 344 344 343 342 342 341 340 338 337 336 335 335 334 333 333 332 332 331 330 329 329 328 328 328 327 327 326 325 324 322 321
314 325 336 343 341 332 323 5 20 20 11 5 359 355 355 355 353 350 346 343 341 338 335 335 334 334 334 332 334 336 337 339 340 341 343 344 344 345 344 343 343 342 342 342 341 341 341 340 340 341 342 343 343 344 343 343 342 342 341 340 339 338 337 336 335 335 334 334 333 332 332 331 330 329 328 327 327 326 325 325 324 324 323 322 321 320
313 320 337 342 336 327 330 16 27 24 12 2 355 351 350 351 350 346 340 336 333 332 331 331 332 332 331 329 330 332 334 337 339 341 343 343 344 343 343 342 341 341 340 340 340 340 340 340 340 341 342 343 343 343 342 341 341 340 339 338 337 336 335 335 335 334 333 333 332 332 331 330 329 329 328 327 326 325 324 323 322 321 321 320 319 319
329 332 340 343 343 341 343 11 26 27 17 5 353 347 345 346 344 340 333 329 328 329 332 334 335 335 332 329 329 330 333 337 340 342 344 344 343 342 341 340 340 339 339 339 339 339 339 339 340 341 342 342 342 342 341 340 339 338 337 336 335 334 334 334 334 333 333 332 331 331 330 329 329 328 327 327 326 325 323 322 321 320 319 319 318 317
349 345 340 340 346 355 355 1 15 23 20 8 355 345 343 341 339 336 334 334 334 336 339 341 340 338 333 331 330 333 338 345 347 348 346 345 344 342 340 339 338 338 337 337 337 337 338 339 340 341 342 342 341 341 339 338 337 335 334 334 333 333 333 333 333 332 332 331 330 330 329 329 328 328 327 327 326 324 323 322 321 320 319 318 317 317
360 355 342 335 344 7 19 2 3 9 16 6 355 345 343 341 339 338 339 340 342 344 347 346 343 338 334 334 335 339 345 349 349 348 346 344 341 340 339 338 337 336 336 336 336 336 337 338 339 340 341 340 340 339 337 336 334 333 333 332 332 332 332 332 331 331 330 330 329 329 329 329 328 328 327 326 325 324 322 321 321 320 319 318 317 316
356 354 347 337 346 7 28 12 360 356 2 355 348 344 349 348 344 342 341 340 342 346 349 348 344 339 334 334 337 343 350 349 348 346 344 341 339 338 337 336 335 335 335 335 335 336 336 338 339 340 340 339 338 337 335 334 333 332 331 331 331 331 331 331 330 330 329 329 329 329 329 329 328 327 326 325 324 323 322 321 320 319 318 317 316 315
354 350 347 345 352 6 17 8 357 349 351 352 352 353 354 355 352 346 342 339 340 342 344 343 340 335 329 329 335 343 349 347 344 342 340 339 338 337 336 336 335 335 336 335 335 336 337 338 339 339 338 337 336 334 333 332 331 331 330 330 330 330 330 329 329 328 328 328 329 329 329 329 328 327 326 324 323 322 321 320 319 318 317 316 315 314
352 347 343 347 357 5 10 3 358 354 357 1 360 357 351 351 351 348 341 337 336 336 336 335 333 328 319 323 335 345 347 344 342 339 339 339 339 338 337 336 336 336 336 336 335 336 337 338 338 338 337 335 334 332 331 330 330 330 330 330 329 329 329 328 328 328 328 328 329 329 329 328 327 326 325 324 322 321 321 320 319 318 317 316 314 313
350 347 347 352 359 5 9 5 1 359 359 2 1 355 346 346 346 346 340 335 332 331 329 328 325 320 314 329 344 351 349 345 342 341 341 340 338 338 337 335 334 334 334 334 334 335 337 338 337 336 335 333 332 330 330 329 329 329 329 329 329 328 327 327 327 327 328 329 329 329 329 328 326 325 324 323 322 322 321 320 319 318 317 315 314 313
348 347 351 354 359 2 5 4 3 1 359 360 356 351 345 345 347 345 341 335 331 328 328 326 323 321 321 337 353 358 356 349 345 341 338 335 334 334 334 331 329 329 331 331 330 331 334 335 334 332 331 330 329 328 328 328 328 328 328 328 327 327 327 327 327 328 329 330 330 329 328 327 326 325 324 324 323 323 322 321 320 318 317 315 314 313
344 346 351 354 357 360 1 2 1 359 356 358 355 351 346 346 345 343 339 333 331 332 337 337 337 336 335 347 1 4 0 352 344 337 332 328 327 329 333 330 327 326 328 329 328 328 330 330 330 329 327 326 326 326 326 327 327 327 327 327 326 326 326 327 328 329 330 330 329 328 327 326 325 325 325 325 324 324 323 322 320 319 317 316 314 313
338 344 348 354 358 359 355 355 358 357 354 353 352 350 346 343 340 337 335 334 336 340 346 347 345 341 335 340 353 3 2 350 339 330 324 320 320 324 331 328 324 322 324 325 325 325 326 327 327 326 323 323 324 325 325 325 326 326 326 326 326 326 327 328 329 330 330 329 328 327 326 325 325 325 325 326 325 325 323 322 320 319 317 316 315 314
336 340 348 357 358 355 350 347 349 353 351 350 347 344 339 334 332 333 336 340 345 347 347 347 344 336 329 328 333 344 354 344 332 322 318 314 314 318 325 322 318 317 319 320 321 322 323 324 324 323 320 322 322 323 324 324 325 325 325 325 326 327 328 329 329 329 329 328 327 326 326 325 326 326 326 326 326 325 324 322 321 319 318 317 316 315
334 338 348 352 349 346 340 339 343 347 347 346 342 337 334 333 335 340 345 348 348 346 341 335 328 320 315 310 315 324 338 331 322 315 312 310 311 313 318 317 316 316 317 318 319 320 320 319 318 318 319 320 321 322 322 323 324 324 325 326 327 328 329 329 329 328 327 327 326 326 326 326 327 327 327 327 326 325 324 322 321 320 319 319 318 317
328 331 343 346 339 331 321 330 336 339 337 336 335 333 331 335 341 347 348 346 343 338 329 321 316 310 307 305 309 314 322 320 315 309 306 305 306 308 312 316 317 317 316 316 317 318 319 318 316 316 317 318 319 320 322 323 324 324 326 327 328 329 329 328 328 327 326 326 326 326 326 327 327 328 328 327 326 325 324 323 322 322 321 321 320 319
306 305 301 327 325 303 286 291 305 314 320 327 332 334 333 338 343 344 341 338 333 328 321 315 309 305 305 305 306 308 312 313 311 308 305 303 303 304 308 316 319 317 315 314 314 316 317 316 314 313 314 317 318 320 321 322 324 325 327 328 328 328 328 327 326 326 326 326 326 327 327 328 328 328 328 327 326 325 325 324 324 324 323 323 322 321
267 269 261 235 211 221 248 251 265 281 297 317 329 336 337 338 337 336 333 331 326 320 315 307 301 298 298 297 297 298 300 301 303 306 306 304 303 304 311 319 320 317 313 313 314 316 316 314 311 310 311 315 317 319 320 322 324 326 327 328 328 327 326 326 325 325 326 326 327 327 328 328 328 328 328 327 326 326 326 326 326 325 325 324 324 323
229 241 248 238 228 226 236 243 249 258 270 289 307 317 318 322 321 321 323 321 315 309 303 295 292 292 291 290 290 291 291 292 297 301 302 302 304 308 317 323 321 316 311 313 315 316 315 312 309 308 309 314 316 318 320 323 325 327 327 327 327 326 325 325 325 325 326 326 327 328 328 328 328 328 327 327 327 327 327 327 327 326 326 325 325 324
220 229 237 235 231 228 230 236 242 246 249 254 259 260 251 258 275 288 298 301 300 297 297 297 298 299 295 293 291 290 291 296 300 301 296 297 302 309 320 324 320 314 310 312 314 314 313 309 307 306 306 312 315 318 321 324 325 327 327 326 326 325 325 324 325 325 326 326 327 328 328 328 328 327 327 327 327 327 328 328 327 327 327 326 326 325
215 220 226 232 237 242 250 255 264 270 268 255 242 229 224 249 272 288 298 298 297 298 302 306 307 306 303 303 301 298 297 301 300 297 293 297 303 309 316 320 317 313 310 312 314 313 310 308 306 305 304 309 314 318 321 324 325 326 326 325 325 324 324 324 325 325 326 326 327 327 327 327 327 327 327 327 327 328 328 328 328 327 327 327 326 325
263 255 258 268 275 282 290 295 299 302 302 297 283 259 246 265 288 308 317 306 303 304 309 309 307 306 303 305 305 305 306 304 296 288 292 302 307 310 313 316 315 312 310 313 315 314 310 307 306 306 306 307 313 318 321 323 324 324 324 324 324 324 324 324 324 325 326 326 326 326 326 326 326 326 327 327 327 328 328 328 327 327 327 327 326 325
319 315 311 311 311 312 312 312 312 311 310 309 305 298 290 296 314 317 305 293 296 305 310 309 308 307 308 308 307 307 309 307 297 286 298 310 310 310 314 318 318 315 313 313 313 313 309 306 305 305 305 306 310 316 321 322 323 323 323 323 323 323 323 324 324 325 325 325 325 325 325 325 326 326 326 327 327 327 327 327 327 327 327 327 326 323
329 329 329 328 326 324 322 320 318 317 314 311 309 307 308 321 319 296 281 275 285 299 304 305 306 308 311 311 308 307 308 302 293 293 319 318 312 309 314 318 319 317 315 312 310 308 306 301 299 299 303 309 313 316 320 321 321 321 321 322 322 322 323 323 324 324 324 324 324 324 324 324 325 325 326 326 326 327 327 327 327 327 327 326 324 320
331 331 331 330 329 328 328 327 324 320 315 312 311 312 317 319 236 248 258 267 284 297 299 300 303 305 307 306 305 304 301 293 291 308 335 323 313 309 315 319 321 320 318 314 310 307 303 296 294 299 307 314 317 317 317 319 319 319 319 320 321 321 322 323 323 323 323 324 323 323 323 324 324 324 325 325 326 326 326 326 326 326 326 325 322 320
328 330 329 328 327 327 328 324 318 315 314 315 316 318 324 305 216 223 245 266 285 294 297 299 301 303 305 306 307 305 299 292 307 329 340 325 316 313 318 320 322 323 324 320 317 314 310 305 305 310 315 318 318 317 315 316 316 316 316 318 319 320 321 322 323 323 323 323 322 322 322 323 323 323 324 324 324 325 325 326 326 326 325 324 322 320
312 316 314 313 316 318 318 312 308 309 314 319 323 326 331 319 265 240 253 272 285 293 298 300 301 303 305 307 308 307 302 305 324 336 337 323 314 313 319 319 320 322 327 325 321 317 315 314 318 321 321 318 316 314 314 314 314 315 315 316 317 319 321 322 322 322 322 321 321 321 321 322 322 322 323 323 323 324 324 325 326 327 326 324 322 321
296 302 299 299 302 307 310 310 310 312 317 322 327 329 330 327 320 308 299 302 304 305 302 300 299 299 299 298 297 296 297 304 321 329 329 319 311 310 316 315 315 317 320 318 314 311 311 313 317 321 323 319 316 314 313 314 314 315 316 317 317 317 320 321 321 321 320 320 320 320 320 321 321 321 322 322 322 323 323 325 326 327 327 325 322 320
304 304 304 305 308 309 312 313 314 316 318 319 322 325 328 332 334 333 331 328 322 315 307 301 298 297 296 292 289 287 290 298 312 320 323 317 311 309 312 312 312 312 313 310 304 299 297 303 308 313 316 316 314 314 313 314 315 316 317 318 317 316 319 320 320 319 318 318 318 319 319 319 320 320 320 320 321 322 322 324 326 327 328 325 322 320
310 311 310 313 313 314 314 315 315 315 316 319 322 325 329 332 333 333 329 324 317 309 300 296 295 296 297 294 292 289 290 295 307 316 321 316 310 307 310 311 310 311 312 309 306 301 295 299 304 309 310 311 312 313 313 314 315 316 317 317 316 315 316 318 318 317 316 316 316 316 317 317 318 318 319 319 320 321 322 323 325 326 327 325 323 320
314 312 311 313 314 316 316 316 316 317 317 318 320 324 327 327 324 320 316 311 305 297 289 286 286 289 292 294 294 295 296 299 308 315 317 314 310 307 307 308 309 310 310 309 308 307 303 303 305 308 308 310 311 312 313 313 314 315 315 314 313 313 313 314 315 314 314 314 314 314 315 314 315 316 317 318 319 320 321 322 324 325 325 324 323 321
320 315 310 309 310 313 311 311 313 314 314 313 316 318 321 318 313 309 304 301 296 290 285 282 280 279 280 284 288 291 295 299 306 310 312 310 308 305 303 304 306 307 307 307 307 307 306 304 305 306 308 309 310 312 313 315 315 315 314 314 312 311 310 311 311 312 313 313 313 313 313 313 314 314 314 316 318 319 320 321 322 323 323 323 322 321
321 313 305 300 302 304 305 305 306 309 308 313 317 318 317 313 309 305 300 294 288 284 283 282 281 282 283 283 284 287 292 297 301 303 304 303 302 300 298 298 300 302 302 303 305 306 306 305 305 306 307 308 309 312 315 317 317 317 315 314 313 312 310 310 311 311 311 311 311 311 312 312 313 313 313 315 317 318 319 320 320 321 321 321 320 319
321 310 299 294 296 300 303 304 304 307 311 315 316 315 313 308 304 300 297 291 286 281 281 283 284 286 287 287 286 286 287 290 292 294 295 295 294 293 292 292 294 295 296 298 300 303 304 305 307 308 308 307 307 308 311 314 315 315 313 312 310 309 309 310 311 311 310 309 308 309 310 311 312 312 312 315 317 318 318 318 319 320 320 319 318 317
309 298 291 293 295 297 298 302 307 312 317 317 315 312 308 304 298 293 290 288 286 284 284 286 287 287 286 284 284 284 285 286 287 288 289 287 285 285 287 290 292 293 293 294 296 298 299 301 303 305 307 307 308 308 309 310 311 311 312 311 310 308 309 310 311 310 309 308 308 309 310 311 312 312 312 314 316 318 317 317 318 319 320 318 317 316
290 284 286 298 304 307 306 311 314 317 319 315 313 310 307 304 301 297 291 290 291 291 290 290 289 288 286 285 284 285 286 285 285 285 285 281 279 280 285 288 291 294 295 296 296 297 298 297 298 299 301 303 304 306 308 309 310 311 313 313 312 311 312 312 311 309 307 306 307 308 310 311 312 312 313 315 316 317 317 316 315 316 318 317 316 316
287 286 292 305 315 319 316 318 319 318 315 311 310 309 307 308 308 307 305 302 300 298 298 297 296 295 293 289 287 284 283 280 280 280 279 276 276 277 281 285 289 293 297 299 300 300 299 298 298 298 299 299 301 302 303 304 306 308 310 309 307 305 307 308 308 308 308 307 307 308 309 311 313 314 315 315 314 313 311 311 311 312 313 313 313 313
295 297 308 314 317 318 319 318 315 312 309 307 306 305 307 310 311 311 310 309 309 308 308 308 306 304 302 298 292 287 282 279 277 276 277 275 274 275 278 283 288 293 299 302 302 302 300 299 298 298 299 300 301 301 301 302 303 305 306 304 303 303 303 303 305 307 309 308 308 309 311 312 313 314 314 313 311 309 308 307 307 308 309 310 308 305
297 303 310 309 308 307 309 309 308 308 308 306 303 303 305 309 310 310 310 310 310 311 311 311 309 306 303 301 299 296 289 282 278 277 279 277 276 276 279 283 288 294 300 302 302 301 300 298 297 296 297 298 299 299 298 301 302 302 301 302 304 307 307 308 309 310 309 307 308 310 311 312 312 311 311 310 309 308 307 305 304 305 305 304 302 300
292 301 306 304 305 308 311 309 308 306 305 303 301 301 304 307 309 309 309 308 308 308 309 309 306 303 300 299 301 301 299 293 288 285 284 283 283 283 286 288 291 293 296 299 301 301 302 300 297 296 296 297 297 296 296 298 299 300 300 301 302 302 300 303 307 310 309 308 309 310 310 310 310 309 308 307 306 306 306 305 303 301 300 298 297 296
294 301 303 306 310 313 311 308 305 304 304 302 301 302 303 306 308 308 306 304 304 305 306 308 306 304 300 299 302 304 303 302 300 297 291 289 291 293 293 294 294 295 294 294 294 296 299 299 298 297 297 295 293 292 293 296 297 299 300 301 300 298 296 299 304 308 310 310 310 310 310 310 310 309 307 306 306 306 306 305 304 302 299 298 296 295
300 304 304 306 306 306 305 304 304 303 300 299 299 299 301 304 304 303 301 301 301 302 303 304 304 302 299 301 304 305 306 305 305 304 302 298 297 296 296 295 295 296 295 291 289 287 287 289 292 295 297 295 292 290 290 293 296 298 300 302 303 302 302 303 306 308 310 310 309 308 309 310 310 308 306 305 305 305 305 304 303 302 302 300 297 296
299 299 301 302 301 299 298 299 300 300 299 298 297 297 298 300 300 298 298 299 300 302 302 301 299 297 296 300 302 305 306 305 306 306 306 305 304 304 302 300 298 295 292 290 288 284 281 280 282 286 292 294 294 293 292 293 295 297 300 304 307 308 308 308 308 309 308 307 306 307 309 311 309 307 304 303 302 303 303 303 302 302 301 300 299 298
293 297 300 301 300 299 297 297 297 297 296 295 295 294 294 296 299 301 300 301 301 301 302 301 298 296 296 296 298 300 301 302 303 305 307 309 309 311 310 307 303 299 294 290 286 283 279 276 275 275 279 284 288 292 294 295 298 300 304 308 310 310 308 306 306 307 306 304 303 304 306 308 307 306 305 304 303 302 303 304 304 303 302 301 300 299
296 298 299 299 298 296 294 296 295 293 292 293 292 292 291 293 298 301 300 300 300 298 298 297 298 297 297 297 297 297 298 298 299 302 306 308 310 312 311 310 307 304 300 293 287 281 277 273 269 266 267 272 280 287 294 298 301 305 307 308 308 307 304 304 304 305 305 303 302 301 302 301 301 301 302 302 302 302 303 304 305 305 304 303 301 300
293 292 293 293 293 291 290 292 292 292 290 292 293 293 293 294 296 297 296 296 294 293 293 294 296 297 297 297 298 298 299 299 300 302 305 308 312 313 313 313 311 309 307 302 297 292 287 280 272 267 266 272 281 290 296 301 305 306 306 305 304 303 303 302 303 304 304 302 302 301 300 298 297 297 298 299 300 301 303 304 305 306 307 305 303 300
288 288 287 287 286 286 287 288 289 289 289 290 291 293 295 297 297 297 295 294 294 294 292 293 293 294 295 296 297 298 299 300 302 304 307 310 312 313 313 313 313 312 311 311 309 307 304 301 296 289 283 288 294 299 300 305 307 308 306 303 302 302 302 301 301 301 302 301 300 299 299 298 297 297 299 300 301 302 304 304 305 306 308 308 306 303